Location: Molveno
(46.1500°N, 10.9667°E)
Time: 01:23:55
(UTC+00:00)

ATLAS 5 CENTAUR R/B - Pass Details

Date: 05 July 2020
Orbit: 534 x 1124 km, 63.4° (Epoch: 06 August)

Event Time Altitude Azimuth Distance (km) Brightness Sun altitude
Rises 21:05:22 0° 239° (WSW) 2,716 4.9 -14.6°
Reaches altitude 10° 21:07:34 10° 247° (WSW) 1,865 4.1 -14.8°
Maximum altitude 21:11:30 41° 318° (NW) 891 2.9 -15.2°
Drops below altitude 10° 21:15:59 10° 29° (NNE) 2,117 4.7 -15.6°
Sets 21:18:37 0° 37° (NE) 3,135 5.5 -15.8°
